Darstellungsparameter: Aktuell verwendete Einstellungen:
Skalierung der Graphiken ... ?
xyx+y,   Skalierungsfaktor:      Skalierung: Modus: x, Faktor: 1
Darstellungszeitraum ... ?
Vom - - bis: - -   Zeitraum: 29.03.2020 - 29.03.2020
Min/Max/Avg-Anzeige ... ?
Zeige MMA aktuell
Zeige MMA Monat
Zeige MMA alles
Zeige --A aktuell
Zeige --A Monat
Zeige --A alles
Keine MMA-Anzeige
MMA:
Average (ber die Originaldaten)
MMA-Basis: 29.03.2020 - 29.03.2020
Quicknavigation für Darstellung... ?
Tage:      1T, 2T, 3T, 5T -1T -2T -3T -5T +1T +2T +3T +5T
Wochen: 1W, 2W, 3W -1W -2W -3W +1W +2W +3W
Monate: 1M, 3M, 6M -1M -3M -6M +1M +3M +6M
Jahre:    1J, 3J, 5J, 10J -1J -3J -5J -10J +1J +3J +5J +10J
Nutze für die Darstellung ... ?
Originaldaten oder Mittelwerte auf ...
Stundenbasis Tagesbasis Wochenbasis
Monatsbasis Jahresbasis      Datenbasis: Original-Daten
Darstellen als:
Statistik (Auto) Statistik J:M      Darstellung:
Zur Graphik,    zurück zur Übersicht aller Sensoren.
 
Tabellarische Datenbersicht: ?
 
Sensor: Nr:Datum:Temp:Abs-Feuchte:Windchill:Wind:
Aussen-T/F 1 29-03-2020 00:00:00 7.4 C 5.81 g/m*3 5.58 C 9.7 km/h
2 29-03-2020 00:05:00 7.3 C 5.85 g/m*3 7.3 C 4.8 km/h
3 29-03-2020 00:10:00 7.2 C 5.81 g/m*3 5.35 C 9.7 km/h
4 29-03-2020 00:15:00 7.2 C 5.81 g/m*3 5.69 C 8.1 km/h
5 29-03-2020 00:20:00 7.1 C 5.77 g/m*3 6.02 C 6.4 km/h
6 29-03-2020 00:25:00 7.1 C 5.77 g/m*3 5.23 C 9.7 km/h
7 29-03-2020 00:30:00 7.1 C 5.77 g/m*3 5.23 C 9.7 km/h
8 29-03-2020 00:35:00 7.1 C 5.77 g/m*3 3.98 C 17.7 km/h
9 29-03-2020 00:40:00 7.1 C 5.77 g/m*3 6.02 C 6.4 km/h
10 29-03-2020 00:45:00 7.1 C 5.77 g/m*3 4.92 C 11.3 km/h
11 29-03-2020 00:50:00 7 C 5.66 g/m*3 5.11 C 9.7 km/h
12 29-03-2020 00:55:00 7 C 5.66 g/m*3 4.8 C 11.3 km/h
13 29-03-2020 01:00:00 6.9 C 5.62 g/m*3 4.68 C 11.3 km/h
14 29-03-2020 01:05:00 6.8 C 5.58 g/m*3 3.82 C 16.1 km/h
15 29-03-2020 01:10:00 6.8 C 5.58 g/m*3 4.29 C 12.9 km/h
16 29-03-2020 01:15:00 6.7 C 5.55 g/m*3 3.69 C 16.1 km/h
17 29-03-2020 01:20:00 6.7 C 5.55 g/m*3 4.17 C 12.9 km/h
18 29-03-2020 01:25:00 6.6 C 5.44 g/m*3 3.36 C 17.7 km/h
19 29-03-2020 01:30:00 6.6 C 5.44 g/m*3 4.63 C 9.7 km/h
20 29-03-2020 01:35:00 6.5 C 5.4 g/m*3 4.2 C 11.3 km/h
21 29-03-2020 01:40:00 6.4 C 5.36 g/m*3 3.8 C 12.9 km/h
22 29-03-2020 01:45:00 6.4 C 5.29 g/m*3 3.11 C 17.7 km/h
23 29-03-2020 01:50:00 6.4 C 5.29 g/m*3 4.39 C 9.7 km/h
24 29-03-2020 01:55:00 6.3 C 5.18 g/m*3 3.96 C 11.3 km/h
25 29-03-2020 02:00:00 6.3 C 5.18 g/m*3 3.43 C 14.5 km/h
Sensor: Nr:Datum:Temp:Abs-Feuchte:Windchill:Wind:
Aussen-T/F 26 29-03-2020 02:05:00 6.2 C 5.15 g/m*3 2.86 C 17.7 km/h
27 29-03-2020 02:10:00 6.2 C 5.07 g/m*3 3.84 C 11.3 km/h
28 29-03-2020 02:15:00 6.1 C 5.11 g/m*3 3.43 C 12.9 km/h
29 29-03-2020 02:20:00 5.9 C 5.05 g/m*3 3.19 C 12.9 km/h
30 29-03-2020 02:25:00 5.8 C 5.01 g/m*3 2.16 C 19.3 km/h
31 29-03-2020 02:30:00 5.7 C 5.05 g/m*3 2.03 C 19.3 km/h
32 29-03-2020 02:35:00 5.6 C 5.02 g/m*3 2.57 C 14.5 km/h
33 29-03-2020 02:40:00 5.4 C 5.02 g/m*3 3.58 C 8.1 km/h
34 29-03-2020 02:45:00 5.3 C 4.99 g/m*3 3.46 C 8.1 km/h
35 29-03-2020 02:50:00 5.2 C 4.89 g/m*3 2.63 C 11.3 km/h
36 29-03-2020 02:55:00 5.2 C 4.82 g/m*3 2.07 C 14.5 km/h
37 29-03-2020 04:00:00 5.2 C 4.82 g/m*3 2.63 C 11.3 km/h
38 29-03-2020 04:05:00 5.1 C 4.79 g/m*3 2.51 C 11.3 km/h
39 29-03-2020 04:10:00 5 C 4.76 g/m*3 2.39 C 11.3 km/h
40 29-03-2020 04:15:00 4.9 C 4.66 g/m*3 1.97 C 12.9 km/h
41 29-03-2020 04:20:00 4.8 C 4.63 g/m*3 1.34 C 16.1 km/h
42 29-03-2020 04:25:00 4.8 C 4.63 g/m*3 2.49 C 9.7 km/h
43 29-03-2020 04:30:00 4.8 C 4.63 g/m*3 1.85 C 12.9 km/h
44 29-03-2020 04:35:00 4.8 C 4.69 g/m*3 1.58 C 14.5 km/h
45 29-03-2020 04:40:00 4.8 C 4.69 g/m*3 4.8 C 4.8 km/h
46 29-03-2020 04:45:00 4.8 C 4.69 g/m*3 4.8 C 3.2 km/h
47 29-03-2020 04:50:00 4.8 C 4.76 g/m*3 2.87 C 8.1 km/h
48 29-03-2020 04:55:00 4.8 C 4.76 g/m*3 3.36 C 6.4 km/h
49 29-03-2020 05:00:00 4.8 C 4.83 g/m*3 2.15 C 11.3 km/h
50 29-03-2020 05:05:00 4.8 C 4.83 g/m*3 2.49 C 9.7 km/h
Sensor: Nr:Datum:Temp:Abs-Feuchte:Windchill:Wind:
Aussen-T/F 51 29-03-2020 05:10:00 4.8 C 4.9 g/m*3 2.49 C 9.7 km/h
52 29-03-2020 05:15:00 4.8 C 4.83 g/m*3 1.34 C 16.1 km/h
53 29-03-2020 05:20:00 4.7 C 4.73 g/m*3 0.99 C 17.7 km/h
54 29-03-2020 05:25:00 4.7 C 4.73 g/m*3 0.99 C 17.7 km/h
55 29-03-2020 05:30:00 4.6 C 4.63 g/m*3 0.65 C 19.3 km/h
56 29-03-2020 05:35:00 4.5 C 4.6 g/m*3 1.79 C 11.3 km/h
57 29-03-2020 05:40:00 4.4 C 4.57 g/m*3 1.09 C 14.5 km/h
58 29-03-2020 05:45:00 4.3 C 4.48 g/m*3 0.97 C 14.5 km/h
59 29-03-2020 05:50:00 4.3 C 4.54 g/m*3 1.55 C 11.3 km/h
60 29-03-2020 05:55:00 4.2 C 4.51 g/m*3 2.17 C 8.1 km/h
61 29-03-2020 06:00:00 4.1 C 4.48 g/m*3 2.05 C 8.1 km/h
62 29-03-2020 06:05:00 4 C 4.45 g/m*3 1.93 C 8.1 km/h
63 29-03-2020 06:10:00 3.9 C 4.42 g/m*3 1.06 C 11.3 km/h
64 29-03-2020 06:15:00 3.8 C 4.39 g/m*3 3.8 C 4.8 km/h
65 29-03-2020 06:20:00 3.8 C 4.45 g/m*3 3.8 C 4.8 km/h
66 29-03-2020 06:25:00 3.7 C 4.42 g/m*3 3.7 C 3.2 km/h
67 29-03-2020 06:30:00 3.7 C 4.49 g/m*3 3.7 C 1.6 km/h
68 29-03-2020 06:35:00 3.7 C 4.49 g/m*3 3.7 C 4.8 km/h
69 29-03-2020 06:40:00 3.7 C 4.55 g/m*3 3.7 C 1.6 km/h
70 29-03-2020 06:45:00 3.7 C 4.55 g/m*3 2.09 C 6.4 km/h
71 29-03-2020 06:50:00 3.7 C 4.61 g/m*3 3.7 C 3.2 km/h
72 29-03-2020 06:55:00 3.8 C 4.71 g/m*3 1.29 C 9.7 km/h
73 29-03-2020 07:00:00 3.8 C 4.71 g/m*3 2.21 C 6.4 km/h
74 29-03-2020 07:05:00 3.9 C 4.8 g/m*3 1.06 C 11.3 km/h
75 29-03-2020 07:10:00 3.9 C 4.8 g/m*3 1.82 C 8.1 km/h
Sensor: Nr:Datum:Temp:Abs-Feuchte:Windchill:Wind:
Aussen-T/F 76 29-03-2020 07:15:00 4 C 4.9 g/m*3 2.44 C 6.4 km/h
77 29-03-2020 07:20:00 4 C 4.9 g/m*3 2.44 C 6.4 km/h
78 29-03-2020 07:25:00 4 C 4.9 g/m*3 2.44 C 6.4 km/h
79 29-03-2020 07:30:00 4.1 C 4.93 g/m*3 1.31 C 11.3 km/h
80 29-03-2020 07:35:00 4.1 C 4.93 g/m*3 1.65 C 9.7 km/h
81 29-03-2020 07:40:00 4.1 C 4.93 g/m*3 1.31 C 11.3 km/h
82 29-03-2020 07:45:00 4.2 C 4.96 g/m*3 1.43 C 11.3 km/h
83 29-03-2020 07:50:00 4.2 C 4.96 g/m*3 1.77 C 9.7 km/h
84 29-03-2020 07:55:00 4.2 C 4.96 g/m*3 1.77 C 9.7 km/h
85 29-03-2020 08:00:00 4.2 C 4.96 g/m*3 1.12 C 12.9 km/h
86 29-03-2020 08:05:00 4.2 C 4.96 g/m*3 1.43 C 11.3 km/h
87 29-03-2020 08:10:00 4.2 C 4.96 g/m*3 2.17 C 8.1 km/h
88 29-03-2020 08:15:00 4.3 C 4.99 g/m*3 2.78 C 6.4 km/h
89 29-03-2020 08:20:00 4.3 C 4.99 g/m*3 1.89 C 9.7 km/h
90 29-03-2020 08:25:00 4.3 C 4.99 g/m*3 1.24 C 12.9 km/h
91 29-03-2020 08:30:00 4.4 C 4.96 g/m*3 1.67 C 11.3 km/h
92 29-03-2020 08:35:00 4.4 C 4.96 g/m*3 1.67 C 11.3 km/h
93 29-03-2020 08:40:00 4.5 C 5 g/m*3 1.21 C 14.5 km/h
94 29-03-2020 08:45:00 4.6 C 4.96 g/m*3 1.61 C 12.9 km/h
95 29-03-2020 08:50:00 4.5 C 4.93 g/m*3 0.74 C 17.7 km/h
96 29-03-2020 08:55:00 4.5 C 4.93 g/m*3 1.21 C 14.5 km/h
97 29-03-2020 09:00:00 4.5 C 5 g/m*3 0.96 C 16.1 km/h
98 29-03-2020 09:05:00 4.5 C 4.93 g/m*3 0.96 C 16.1 km/h
99 29-03-2020 09:10:00 4.5 C 4.93 g/m*3 0.96 C 16.1 km/h
100 29-03-2020 09:15:00 4.5 C 4.93 g/m*3 0.74 C 17.7 km/h
Sensor: Nr:Datum:Temp:Abs-Feuchte:Windchill:Wind:
Aussen-T/F 101 29-03-2020 09:20:00 4.5 C 4.93 g/m*3 0.96 C 16.1 km/h
102 29-03-2020 09:25:00 4.5 C 4.93 g/m*3 1.48 C 12.9 km/h
103 29-03-2020 09:30:00 4.6 C 4.96 g/m*3 0.86 C 17.7 km/h
104 29-03-2020 09:35:00 4.7 C 5 g/m*3 2.37 C 9.7 km/h
105 29-03-2020 09:40:00 4.7 C 4.93 g/m*3 2.03 C 11.3 km/h
106 29-03-2020 09:45:00 4.8 C 4.96 g/m*3 1.58 C 14.5 km/h
107 29-03-2020 09:50:00 4.9 C 4.93 g/m*3 1.46 C 16.1 km/h
108 29-03-2020 09:55:00 5 C 4.96 g/m*3 1.83 C 14.5 km/h
109 29-03-2020 10:00:00 5.1 C 4.99 g/m*3 1.28 C 19.3 km/h
110 29-03-2020 10:05:00 5.2 C 5.03 g/m*3 2.34 C 12.9 km/h
111 29-03-2020 10:10:00 5.3 C 4.99 g/m*3 1.74 C 17.7 km/h
112 29-03-2020 10:15:00 5.3 C 4.99 g/m*3 1.53 C 19.3 km/h
113 29-03-2020 10:20:00 5.4 C 4.95 g/m*3 1.66 C 19.3 km/h
114 29-03-2020 10:25:00 5.6 C 4.95 g/m*3 1.91 C 19.3 km/h
115 29-03-2020 10:30:00 5.6 C 4.95 g/m*3 2.33 C 16.1 km/h
116 29-03-2020 10:35:00 5.8 C 4.94 g/m*3 2.58 C 16.1 km/h
117 29-03-2020 10:40:00 6 C 5.01 g/m*3 2.61 C 17.7 km/h
118 29-03-2020 10:45:00 6.1 C 4.82 g/m*3 2.18 C 22.5 km/h
119 29-03-2020 10:50:00 6.1 C 4.75 g/m*3 2.18 C 22.5 km/h
120 29-03-2020 10:55:00 6.2 C 4.85 g/m*3 3.07 C 16.1 km/h
121 29-03-2020 11:00:00 6.4 C 4.62 g/m*3 2.91 C 19.3 km/h
122 29-03-2020 11:05:00 6.5 C 4.57 g/m*3 3.23 C 17.7 km/h
123 29-03-2020 11:10:00 6.6 C 4.53 g/m*3 2.82 C 22.5 km/h
124 29-03-2020 11:15:00 6.5 C 4.57 g/m*3 3.04 C 19.3 km/h
125 29-03-2020 11:20:00 6.4 C 4.55 g/m*3 1.58 C 33.8 km/h
Sensor: Nr:Datum:Temp:Abs-Feuchte:Windchill:Wind:
Aussen-T/F 126 29-03-2020 11:25:00 6.4 C 4.47 g/m*3 1.58 C 33.8 km/h
127 29-03-2020 11:30:00 6.3 C 4.44 g/m*3 2.27 C 24.1 km/h
128 29-03-2020 11:35:00 6.4 C 4.55 g/m*3 2.91 C 19.3 km/h
129 29-03-2020 11:40:00 6.4 C 4.55 g/m*3 2.91 C 19.3 km/h
130 29-03-2020 11:45:00 6.5 C 4.57 g/m*3 3.44 C 16.1 km/h
131 29-03-2020 11:50:00 6.4 C 4.62 g/m*3 3.11 C 17.7 km/h
132 29-03-2020 11:55:00 6.5 C 4.65 g/m*3 3.23 C 17.7 km/h
133 29-03-2020 12:00:00 6.4 C 4.55 g/m*3 3.11 C 17.7 km/h
134 29-03-2020 12:05:00 6.3 C 4.74 g/m*3 2.79 C 19.3 km/h
135 29-03-2020 12:10:00 6.1 C 4.82 g/m*3 2.18 C 22.5 km/h
136 29-03-2020 12:15:00 5.9 C 4.69 g/m*3 1.76 C 24.1 km/h
137 29-03-2020 12:20:00 5.9 C 4.69 g/m*3 1.61 C 25.7 km/h
138 29-03-2020 12:25:00 5.9 C 4.76 g/m*3 1.76 C 24.1 km/h
139 29-03-2020 12:30:00 5.9 C 4.69 g/m*3 2.48 C 17.7 km/h
140 29-03-2020 12:35:00 5.9 C 4.76 g/m*3 2.48 C 17.7 km/h
141 29-03-2020 12:40:00 5.9 C 4.69 g/m*3 2.93 C 14.5 km/h
142 29-03-2020 12:45:00 6 C 4.72 g/m*3 3.31 C 12.9 km/h
143 29-03-2020 12:50:00 6.1 C 4.68 g/m*3 2.95 C 16.1 km/h
144 29-03-2020 12:55:00 6.2 C 4.63 g/m*3 2.31 C 22.5 km/h
145 29-03-2020 13:00:00 6.3 C 4.59 g/m*3 2.79 C 19.3 km/h
146 29-03-2020 13:05:00 6.3 C 4.52 g/m*3 2.79 C 19.3 km/h
147 29-03-2020 13:10:00 6.3 C 4.44 g/m*3 2.43 C 22.5 km/h
148 29-03-2020 13:15:00 6.3 C 4.37 g/m*3 2.12 C 25.7 km/h
149 29-03-2020 13:20:00 6.4 C 4.4 g/m*3 2.73 C 20.9 km/h
150 29-03-2020 13:25:00 6.5 C 4.35 g/m*3 2.86 C 20.9 km/h
Sensor: Nr:Datum:Temp:Abs-Feuchte:Windchill:Wind:
Aussen-T/F 151 29-03-2020 13:30:00 6.6 C 4.3 g/m*3 3.57 C 16.1 km/h
152 29-03-2020 13:35:00 6.7 C 4.26 g/m*3 3.48 C 17.7 km/h
153 29-03-2020 13:40:00 6.8 C 4.28 g/m*3 4.29 C 12.9 km/h
154 29-03-2020 13:45:00 7.1 C 4.21 g/m*3 4.65 C 12.9 km/h
155 29-03-2020 13:50:00 7.3 C 4.35 g/m*3 4.23 C 17.7 km/h
156 29-03-2020 13:55:00 7.6 C 4.27 g/m*3 5.02 C 14.5 km/h
157 29-03-2020 14:00:00 7.5 C 4.24 g/m*3 5.14 C 12.9 km/h
158 29-03-2020 14:05:00 7.3 C 4.19 g/m*3 4.44 C 16.1 km/h
159 29-03-2020 14:10:00 7.3 C 4.19 g/m*3 4.05 C 19.3 km/h
160 29-03-2020 14:15:00 7.3 C 4.19 g/m*3 4.05 C 19.3 km/h
161 29-03-2020 14:20:00 7.2 C 4.4 g/m*3 3.92 C 19.3 km/h
162 29-03-2020 14:25:00 6.8 C 4.44 g/m*3 3.24 C 20.9 km/h
163 29-03-2020 14:30:00 6.6 C 4.45 g/m*3 2.99 C 20.9 km/h
164 29-03-2020 14:35:00 6.6 C 4.45 g/m*3 3.79 C 14.5 km/h
165 29-03-2020 14:40:00 6.5 C 4.42 g/m*3 3.67 C 14.5 km/h
166 29-03-2020 14:45:00 6.5 C 4.42 g/m*3 3.23 C 17.7 km/h
167 29-03-2020 14:50:00 6.6 C 4.53 g/m*3 3.79 C 14.5 km/h
168 29-03-2020 14:55:00 6.6 C 4.53 g/m*3 2.82 C 22.5 km/h
169 29-03-2020 15:00:00 6.7 C 4.64 g/m*3 3.69 C 16.1 km/h
170 29-03-2020 15:05:00 6.8 C 4.67 g/m*3 3.42 C 19.3 km/h
171 29-03-2020 15:10:00 6.9 C 4.39 g/m*3 3.2 C 22.5 km/h
172 29-03-2020 15:15:00 6.9 C 4.31 g/m*3 3.73 C 17.7 km/h
173 29-03-2020 15:20:00 7 C 4.34 g/m*3 3.67 C 19.3 km/h
174 29-03-2020 15:25:00 7.1 C 4.37 g/m*3 4.41 C 14.5 km/h
175 29-03-2020 15:30:00 7.2 C 4.4 g/m*3 3.92 C 19.3 km/h
Sensor: Nr:Datum:Temp:Abs-Feuchte:Windchill:Wind:
Aussen-T/F 176 29-03-2020 15:35:00 7.3 C 4.5 g/m*3 4.05 C 19.3 km/h
177 29-03-2020 15:40:00 7.4 C 4.45 g/m*3 4.17 C 19.3 km/h
178 29-03-2020 15:45:00 7.3 C 4.58 g/m*3 4.44 C 16.1 km/h
179 29-03-2020 15:50:00 7.3 C 4.58 g/m*3 4.66 C 14.5 km/h
180 29-03-2020 15:55:00 7.3 C 4.5 g/m*3 4.9 C 12.9 km/h
181 29-03-2020 16:00:00 7.3 C 4.5 g/m*3 4.05 C 19.3 km/h
182 29-03-2020 16:05:00 7.2 C 4.4 g/m*3 4.11 C 17.7 km/h
183 29-03-2020 16:10:00 7.2 C 4.32 g/m*3 5.04 C 11.3 km/h
184 29-03-2020 16:15:00 7 C 4.26 g/m*3 3.67 C 19.3 km/h
185 29-03-2020 16:20:00 6.9 C 4.23 g/m*3 3.94 C 16.1 km/h
186 29-03-2020 16:25:00 6.8 C 4.21 g/m*3 3.61 C 17.7 km/h
187 29-03-2020 16:30:00 6.8 C 4.44 g/m*3 3.42 C 19.3 km/h
188 29-03-2020 16:35:00 6.7 C 4.48 g/m*3 3.69 C 16.1 km/h
189 29-03-2020 16:40:00 6.7 C 4.56 g/m*3 4.17 C 12.9 km/h
190 29-03-2020 16:45:00 6.7 C 4.56 g/m*3 3.92 C 14.5 km/h
191 29-03-2020 16:50:00 6.8 C 4.44 g/m*3 3.24 C 20.9 km/h
192 29-03-2020 16:55:00 6.8 C 4.44 g/m*3 3.42 C 19.3 km/h
193 29-03-2020 17:00:00 6.8 C 4.51 g/m*3 4.29 C 12.9 km/h
194 29-03-2020 17:05:00 6.9 C 4.54 g/m*3 3.54 C 19.3 km/h
195 29-03-2020 17:10:00 7.1 C 4.6 g/m*3 3.3 C 24.1 km/h
196 29-03-2020 17:15:00 6.9 C 4.54 g/m*3 3.37 C 20.9 km/h
197 29-03-2020 17:20:00 6.9 C 4.7 g/m*3 3.54 C 19.3 km/h
198 29-03-2020 17:25:00 6.9 C 4.85 g/m*3 3.73 C 17.7 km/h
199 29-03-2020 17:30:00 6.8 C 4.74 g/m*3 3.42 C 19.3 km/h
200 29-03-2020 17:35:00 6.9 C 4.85 g/m*3 3.54 C 19.3 km/h
Sensor: Nr:Datum:Temp:Abs-Feuchte:Windchill:Wind:
Aussen-T/F 201 29-03-2020 17:40:00 7 C 4.88 g/m*3 3.49 C 20.9 km/h
202 29-03-2020 17:45:00 6.9 C 4.85 g/m*3 3.73 C 17.7 km/h
203 29-03-2020 17:50:00 6.8 C 4.89 g/m*3 3.82 C 16.1 km/h
204 29-03-2020 17:55:00 6.8 C 4.97 g/m*3 3.82 C 16.1 km/h
205 29-03-2020 18:00:00 6.9 C 5 g/m*3 3.73 C 17.7 km/h
206 29-03-2020 18:05:00 7 C 5.04 g/m*3 4.06 C 16.1 km/h
207 29-03-2020 18:10:00 6.9 C 4.85 g/m*3 2.61 C 29 km/h
208 29-03-2020 18:15:00 6.7 C 4.79 g/m*3 3.29 C 19.3 km/h
209 29-03-2020 18:20:00 6.6 C 4.83 g/m*3 2.51 C 25.7 km/h
210 29-03-2020 18:25:00 6.4 C 4.84 g/m*3 2.4 C 24.1 km/h
211 29-03-2020 18:30:00 6.2 C 5 g/m*3 2.15 C 24.1 km/h
212 29-03-2020 18:35:00 5.8 C 5.16 g/m*3 1.63 C 24.1 km/h
213 29-03-2020 18:40:00 5.4 C 5.23 g/m*3 1.66 C 19.3 km/h
214 29-03-2020 18:45:00 5.1 C 5.34 g/m*3 1.95 C 14.5 km/h
215 29-03-2020 18:50:00 4.9 C 5.33 g/m*3 2.61 C 9.7 km/h
216 29-03-2020 18:55:00 4.9 C 5.33 g/m*3 0.83 C 20.9 km/h
217 29-03-2020 19:00:00 4.9 C 5.33 g/m*3 0.48 C 24.1 km/h
218 29-03-2020 19:05:00 4.8 C 5.36 g/m*3 0.52 C 22.5 km/h
219 29-03-2020 19:10:00 4.6 C 5.43 g/m*3 0.86 C 17.7 km/h
220 29-03-2020 19:15:00 4.4 C 5.42 g/m*3 1.09 C 14.5 km/h
221 29-03-2020 19:20:00 4.4 C 5.42 g/m*3 1.09 C 14.5 km/h
222 29-03-2020 19:25:00 4.3 C 5.45 g/m*3 0.97 C 14.5 km/h
223 29-03-2020 19:30:00 4.3 C 5.45 g/m*3 0.07 C 20.9 km/h
224 29-03-2020 19:35:00 4.3 C 5.51 g/m*3 0.97 C 14.5 km/h
225 29-03-2020 19:40:00 4.2 C 5.48 g/m*3 0.36 C 17.7 km/h
Sensor: Nr:Datum:Temp:Abs-Feuchte:Windchill:Wind:
Aussen-T/F 226 29-03-2020 19:45:00 4.1 C 5.44 g/m*3 -0.18 C 20.9 km/h
227 29-03-2020 19:50:00 4 C 5.47 g/m*3 0.6 C 14.5 km/h
228 29-03-2020 19:55:00 3.9 C 5.43 g/m*3 3.9 C 4.8 km/h
229 29-03-2020 20:00:00 3.9 C 5.43 g/m*3 2.32 C 6.4 km/h
230 29-03-2020 20:05:00 3.8 C 5.46 g/m*3 3.8 C 3.2 km/h
231 29-03-2020 20:10:00 3.8 C 5.46 g/m*3 2.21 C 6.4 km/h
232 29-03-2020 20:15:00 3.8 C 5.46 g/m*3 3.8 C 3.2 km/h
233 29-03-2020 20:20:00 3.8 C 5.46 g/m*3 3.8 C 3.2 km/h
234 29-03-2020 20:25:00 3.8 C 5.46 g/m*3 3.8 C 3.2 km/h
235 29-03-2020 20:30:00 3.8 C 5.46 g/m*3 3.8 C 1.6 km/h
236 29-03-2020 20:35:00 3.8 C 5.46 g/m*3 3.8 C 4.8 km/h
237 29-03-2020 20:40:00 3.9 C 5.43 g/m*3 3.9 C 4.8 km/h
238 29-03-2020 20:45:00 3.9 C 5.37 g/m*3 3.9 C 4.8 km/h
239 29-03-2020 20:50:00 4.1 C 5.38 g/m*3 2.05 C 8.1 km/h
240 29-03-2020 20:55:00 4.2 C 5.35 g/m*3 2.67 C 6.4 km/h
241 29-03-2020 21:00:00 4.2 C 5.28 g/m*3 2.67 C 6.4 km/h
242 29-03-2020 21:05:00 4.2 C 5.22 g/m*3 2.17 C 8.1 km/h
243 29-03-2020 21:10:00 4.3 C 5.19 g/m*3 1.89 C 9.7 km/h
244 29-03-2020 21:15:00 4.3 C 5.12 g/m*3 2.29 C 8.1 km/h
245 29-03-2020 21:20:00 4.3 C 5.06 g/m*3 1.55 C 11.3 km/h
246 29-03-2020 21:25:00 4.4 C 5.09 g/m*3 2.4 C 8.1 km/h
247 29-03-2020 21:30:00 4.4 C 5.03 g/m*3 2.01 C 9.7 km/h
248 29-03-2020 21:35:00 4.4 C 5.03 g/m*3 1.67 C 11.3 km/h
249 29-03-2020 21:40:00 4.4 C 4.96 g/m*3 1.09 C 14.5 km/h
250 29-03-2020 21:45:00 4.4 C 4.9 g/m*3 1.36 C 12.9 km/h
Sensor: Nr:Datum:Temp:Abs-Feuchte:Windchill:Wind:
Aussen-T/F 251 29-03-2020 21:50:00 4.4 C 4.9 g/m*3 1.67 C 11.3 km/h
252 29-03-2020 21:55:00 4.4 C 4.96 g/m*3 1.36 C 12.9 km/h
253 29-03-2020 22:00:00 4.4 C 4.9 g/m*3 1.36 C 12.9 km/h
254 29-03-2020 22:05:00 4.3 C 4.86 g/m*3 0.27 C 19.3 km/h
255 29-03-2020 22:10:00 4.3 C 4.86 g/m*3 0.07 C 20.9 km/h
256 29-03-2020 22:15:00 4.3 C 4.86 g/m*3 0.07 C 20.9 km/h
257 29-03-2020 22:20:00 4.3 C 4.8 g/m*3 1.24 C 12.9 km/h
258 29-03-2020 22:25:00 4.3 C 4.8 g/m*3 1.24 C 12.9 km/h
259 29-03-2020 22:30:00 4.3 C 4.74 g/m*3 0.97 C 14.5 km/h
260 29-03-2020 22:35:00 4.2 C 4.7 g/m*3 1.43 C 11.3 km/h
261 29-03-2020 22:40:00 4.2 C 4.7 g/m*3 0.59 C 16.1 km/h
262 29-03-2020 22:45:00 4.2 C 4.64 g/m*3 0.59 C 16.1 km/h
263 29-03-2020 22:50:00 4.2 C 4.7 g/m*3 0.59 C 16.1 km/h
264 29-03-2020 22:55:00 4.2 C 4.64 g/m*3 0.59 C 16.1 km/h
265 29-03-2020 23:00:00 4.2 C 4.57 g/m*3 0.36 C 17.7 km/h
266 29-03-2020 23:05:00 4.2 C 4.57 g/m*3 1.12 C 12.9 km/h
267 29-03-2020 23:10:00 4.2 C 4.57 g/m*3 1.12 C 12.9 km/h
268 29-03-2020 23:15:00 4.1 C 4.48 g/m*3 0.47 C 16.1 km/h
269 29-03-2020 23:20:00 4.1 C 4.42 g/m*3 0.72 C 14.5 km/h
270 29-03-2020 23:25:00 4.1 C 4.48 g/m*3 0.47 C 16.1 km/h
271 29-03-2020 23:30:00 4.1 C 4.42 g/m*3 0.72 C 14.5 km/h
272 29-03-2020 23:35:00 4 C 4.32 g/m*3 -0.5 C 22.5 km/h
273 29-03-2020 23:40:00 3.9 C 4.23 g/m*3 0.75 C 12.9 km/h
274 29-03-2020 23:45:00 3.9 C 4.23 g/m*3 -0.01 C 17.7 km/h
275 29-03-2020 23:50:00 3.8 C 4.2 g/m*3 0.63 C 12.9 km/h
Sensor: Nr:Datum:Temp:Abs-Feuchte:Windchill:Wind:
Aussen-T/F 276 29-03-2020 23:55:00 3.7 C 4.18 g/m*3 1.18 C 9.7 km/h

Legende:
   Min
   Max


Maximal/Minimal-Werte vom 29.03.2020 - 29.03.2020

Sensor Min Max Avg
Temp
(Aussen-T/F)
3.7 °C
29-03-2020  06:25:00
7.6 °C
29-03-2020  13:55:00
5.45 °C
Abs-Feuchte
(Aussen-T/F)
4.18 g/m*3
29-03-2020  23:55:00
5.85 g/m*3
29-03-2020  00:05:00
4.84 g/m*3
Windchill
(Aussen-T/F)
-0.5 C
29-03-2020  23:35:00
7.3 C
29-03-2020  00:05:00
2.6 C

Die Daten stammen von einer Davis Vantage Pro 2 Wetter-Station und werden unter Linux mit der Software wview2wettercgi und aufbereitet. Alle Angaben erfolgen ohne Gewähr für ihre Vollständigkeit oder Richtigkeit.
Kontakt: Rainer Krienke krienke@uni-koblenz.de . Meine Webseiten an der Uni Koblenz oder privat.
Version: $Revision: 0.78 $